ONEWEB-0632, 56073

Orbit data source: Space-Track

ONEWEB-0632, 56073 is a payload satellite owned by One Web (NAA) (UK) in LEO that was launched on Sun, 26 Mar 2023 UTC via a LVM3 launch vehicle from the Sirharikota (SRI). Payloads include a variety of satellites, spacecraft, and rockets equipped with specific instruments for various scientific and technological missions. These include communications satellites like Starlink; space stations such as the ISS; scientific satellites like the Hubble; Earth observation satellites from companies like Planet Labs, Umbra, and HawkEye 360; GPS; miniature CubeSats for education and research; and military/defense satellites.

Loading next visibility...
ONEWEB-0632 details
Identifier
56073, 2023-043AD
Orbit
LEO
Last TLE update17 hours ago
Origin
Flag of UKOne Web (NAA) (UK)
ManufacturerOne Web
MissionOperational Commercial Communications
Bus & MotorARROW, Unknown motor
Mass148 kg wet, ~140 kg dry
Launch date (UTC)
2023-03-26 (2 years ago)
Launch vehicle
LVM3
Launch site
Sirharikota (SRI)
Object type
Payload
Rocket body
Debris
Shape & HBRTrap Box + 2 Pan, 5 m
Radar Cross Section2.032 m², Large (>1 m²)

Expand to show TLE details & history

TLE from 17 hours ago
0 ONEWEB-0632
1 56073U 23043AD  25014.91486596 -.00000077  00000-0 -23930-3 0  9999
2 56073  87.9076   2.4147 0001549  80.0867 280.0439 13.15548798 88289
Epoch: 2025-01-14T21:57Z
Definitive object data (Epoch: 2025-01-14T21:57:24.418Z)
Latitude0.00004°
Longitude-81.55176°
Altitude1,204.461 km
Speed7.252 km/s
True Right ascension00h 09m 39s
True Declination0° 00' 00"
Sunlit
Object was in daylight at TLE epoch
Visualization TLE readout
Latitude49.07508°
Longitude-79.28673°
Altitude1,208.524 km
Speed7.255 km/s
Apparent Right ascension01h 47m 57s
Apparent Declination10° 10' 43"
Sunlit
Object is in daylight
Visualization observer readout
Local Sidereal Time15:18:42
Azimuth27.862° NE
Elevation-35.669°
Doppler factor1
Orbital elements
Apogee altitude1,200.055 km
Perigee altitude1,197.708 km
Semi-major axis7,577.019 km
Eccentricity0.0001549
Inclination87.9076°
RAAN2.4147°
Arg. of periapsis80.0867°
True anomaly280.02642°
Mean anomaly280.0439°
Eccentric anomaly280.03516°
Mean motion3.29076 °/min
BSTAR-0.0002393
Orbital period109.4 mins
Loading maneuver chart data...
Loading historical data...
Loading historical data...
Loading historical data...
Loading historical data...
Loading historical data...
Loading historical data...
Loading historical data...

ONEWEB-0632 Visibility forecast

Observer location: undefined°, undefined

Span
Click to sort rows by Start time (UTC) header in descending order
Start Az.
Max El. time (UTC)
Max El. Az.
Max El.
End time (UTC)
End Az.
8 mins2025-01-15 21:49:59.303Z109.851° ESE2025-01-15 21:53:59.303Z75.154° E16.9°2025-01-15 21:57:59.303Z39.077° NE
13 mins2025-01-15 23:36:59.303Z185.127° SSW2025-01-15 23:42:59.303Z286.103° WNW44.42°2025-01-15 23:49:59.303Z358.108° N
4 mins2025-01-16 01:31:59.303Z276.571° WNW2025-01-16 01:33:59.303Z293.589° NW11.932°2025-01-16 01:35:59.303Z310.116° NW
4 mins2025-01-16 09:17:59.303Z55.38° ENE2025-01-16 09:19:59.303Z72.617° E12.555°2025-01-16 09:21:59.303Z89.567° E
12 mins2025-01-16 11:04:59.303Z2.654° NNE2025-01-16 11:09:59.303Z42.479° NE44.355°2025-01-16 11:16:59.303Z177.062° S
7 mins2025-01-16 12:55:59.303Z315.105° NNW2025-01-16 12:58:59.303Z287.693° WNW16.279°2025-01-16 13:02:59.303Z252.783° W
|